FW6908 Weather Reports


Display with metric or nautical units.
time (UTC)temp
F
wind
direction
speed
MPH
gust
MPH
rain 1hr
in
rain 24hr
in
rain mn
in
humidity
%
barometer
mb
20260903202542 81 342 0.0 2.0 0.00 0.00 0.00 43 1014.6
20260903202039 81 299 0.0 1.0 0.00 0.00 0.00 43 1014.7
20260903201539 81 301 0.0 1.0 0.00 0.00 0.00 43 1014.7
20260903201038 81 301 0.0 1.0 0.00 0.00 0.00 44 1014.7
20260903200539 81 302 0.0 2.0 0.00 0.00 0.00 44 1014.8
20260903200040 81 308 0.0 4.0 0.00 0.00 0.00 44 1014.8
20260903195538 80 311 1.0 4.0 0.00 0.00 0.00 44 1014.7
20260903195038 81 355 2.0 6.0 0.00 0.00 0.00 43 1014.6
20260903194539 81 13 2.0 8.0 0.00 0.00 0.00 43 1014.5
20260903194037 81 52 4.0 10.0 0.00 0.00 0.00 43 1014.6
20260903193537 81 86 4.0 11.0 0.00 0.00 0.00 43 1014.6
20260903193037 81 90 4.0 11.0 0.00 0.00 0.00 43 1014.5
20260903192537 81 69 6.0 11.0 0.00 0.00 0.00 43 1014.5
20260903192036 81 71 3.0 10.0 0.00 0.00 0.00 43 1014.5
20260903191536 81 87 4.0 14.0 0.00 0.00 0.00 43 1014.5
20260903191040 82 65 6.0 12.0 0.00 0.00 0.00 43 1014.5
20260903190536 82 59 5.0 11.0 0.00 0.00 0.00 43 1014.5
20260903190035 82 55 6.0 13.0 0.00 0.00 0.00 43 1014.5
20260903185536 82 76 2.0 12.0 0.00 0.00 0.00 43 1014.4
20260903185036 82 103 6.0 12.0 0.00 0.00 0.00 43 1014.3
20260903184540 82 74 6.0 11.0 0.00 0.00 0.00 43 1014.3
20260903184035 82 86 5.0 12.0 0.00 0.00 0.00 43 1014.2
20260903183534 82 78 6.0 13.0 0.00 0.00 0.00 43 1014.2
20260903183035 83 80 6.0 14.0 0.00 0.00 0.00 43 1014.1
20260903182535 83 101 6.0 14.0 0.00 0.00 0.00 43 1014.1
20260903182035 83 98 8.0 13.0 0.00 0.00 0.00 43 1014.1
20260903181534 83 105 8.0 13.0 0.00 0.00 0.00 43 1014.0
20260903181036 83 88 9.0 15.0 0.00 0.00 0.00 43 1014.1
20260903180535 83 59 10.0 15.0 0.00 0.00 0.00 43 1014.0
20260903180037 83 80 8.0 13.0 0.00 0.00 0.00 43 1014.0
20260903175533 83 69 7.0 13.0 0.00 0.00 0.00 43 1014.1
20260903175033 83 128 8.0 13.0 0.00 0.00 0.00 43 1014.0
20260903174537 83 57 7.0 13.0 0.00 0.00 0.00 43 1014.0
20260903174033 83 78 8.0 13.0 0.00 0.00 0.00 43 1013.9
20260903173537 83 86 7.0 13.0 0.00 0.00 0.00 43 1013.8
20260903173037 83 86 6.0 13.0 0.00 0.00 0.00 43 1013.9
20260903172532 83 56 6.0 14.0 0.00 0.00 0.00 43 1013.9
20260903172034 84 59 5.0 14.0 0.00 0.00 0.00 43 1013.9
20260903171535 84 49 8.0 13.0 0.00 0.00 0.00 43 1013.8
20260903171033 84 82 6.0 15.0 0.00 0.00 0.00 43 1013.8
20260903170531 84 46 7.0 16.0 0.00 0.00 0.00 43 1013.8
20260903170033 84 58 7.0 15.0 0.00 0.00 0.00 43 1013.7
20260903165530 84 50 8.0 15.0 0.00 0.00 0.00 43 1013.6
20260903165032 84 61 8.0 16.0 0.00 0.00 0.00 43 1013.6
20260903164530 85 25 9.0 18.0 0.00 0.00 0.00 43 1013.6
20260903164032 85 53 9.0 18.0 0.00 0.00 0.00 42 1013.5
20260903163531 85 101 8.0 17.0 0.00 0.00 0.00 42 1013.5
20260903163030 85 26 7.0 23.0 0.00 0.00 0.00 42 1013.4
20260903162529 85 49 12.0 23.0 0.00 0.00 0.00 42 1013.3
20260903162029 85 59 8.0 22.0 0.00 0.00 0.00 42 1013.3
20260903161529 85 47 10.0 22.0 0.00 0.00 0.00 42 1013.3
20260903161028 86 62 13.0 26.0 0.00 0.00 0.00 42 1013.3
20260903160528 86 19 12.0 26.0 0.00 0.00 0.00 41 1013.2
20260903160027 86 45 13.0 27.0 0.00 0.00 0.00 41 1013.2
20260903155527 87 52 9.0 22.0 0.00 0.00 0.00 41 1013.2
20260903155027 87 28 10.0 22.0 0.00 0.00 0.00 41 1013.1
20260903154527 87 84 11.0 25.0 0.00 0.00 0.00 41 1013.2
20260903154025 87 49 16.0 25.0 0.00 0.00 0.00 41 1013.1
20260903153527 87 63 13.0 23.0 0.00 0.00 0.00 41 1013.0
20260903153025 87 51 10.0 24.0 0.00 0.00 0.00 40 1013.1
20260903152525 87 81 12.0 24.0 0.00 0.00 0.00 40 1013.1
20260903152025 87 76 9.0 24.0 0.00 0.00 0.00 42 1013.2
20260903151529 87 53 9.0 22.0 0.00 0.00 0.00 42 1013.2
20260903151025 87 72 11.0 24.0 0.00 0.00 0.00 43 1013.2
20260903150525 87 49 14.0 24.0 0.00 0.00 0.00 42 1013.3
20260903150024 87 71 13.0 24.0 0.00 0.00 0.00 43 1013.2
20260903145524 87 86 14.0 24.0 0.00 0.00 0.00 43 1013.3
20260903145022 87 81 11.0 23.0 0.00 0.00 0.00 44 1013.3
20260903144522 87 90 12.0 27.0 0.00 0.00 0.00 43 1013.3
20260903144023 87 94 12.0 27.0 0.00 0.00 0.00 44 1013.1
20260903143520 88 23 12.0 22.0 0.00 0.00 0.00 45 1013.1
20260903143020 88 74 11.0 21.0 0.00 0.00 0.00 45 1013.2
20260903142520 89 74 12.0 20.0 0.00 0.00 0.00 43 1013.2
20260903142018 89 38 10.0 22.0 0.00 0.00 0.00 43 1013.2
20260903141518 89 50 13.0 21.0 0.00 0.00 0.00 43 1013.1
20260903141017 90 47 16.0 20.0 0.00 0.00 0.00 42 1013.2
20260903140516 90 61 7.0 22.0 0.00 0.00 0.00 42 1013.2
20260903140030 90 71 11.0 22.0 0.00 0.00 0.00 42 1013.0
20260903135514 90 43 13.0 22.0 0.00 0.00 0.00 42 1013.0
20260903135013 90 24 12.0 22.0 0.00 0.00 0.00 41 1012.8
20260903134518 91 88 13.0 22.0 0.00 0.00 0.00 41 1012.8
20260903134017 91 101 12.0 22.0 0.00 0.00 0.00 41 1012.7
20260903133512 91 59 9.0 21.0 0.00 0.00 0.00 41 1012.7
20260903133012 91 88 11.0 21.0 0.00 0.00 0.00 40 1012.7
20260903132512 90 48 11.0 21.0 0.00 0.00 0.00 41 1012.9
20260903132015 90 99 12.0 21.0 0.00 0.00 0.00 40 1012.9
20260903131512 91 66 10.0 21.0 0.00 0.00 0.00 40 1012.9
20260903131011 91 80 11.0 21.0 0.00 0.00 0.00 40 1012.8
20260903130514 90 60 12.0 19.0 0.00 0.00 0.00 40 1012.9
20260903130130 91 48 11.0 19.0 0.00 0.00 0.00 39 1013.0
20260903125509 90 112 9.0 26.0 0.00 0.00 0.00 41 1013.2
20260903125009 90 69 17.0 26.0 0.00 0.00 0.00 40 1013.3
20260903124509 91 90 10.0 21.0 0.00 0.00 0.00 40 1013.2
20260903124008 91 88 9.0 20.0 0.00 0.00 0.00 40 1013.1
20260903123508 91 23 11.0 22.0 0.00 0.00 0.00 39 1013.2
20260903123014 91 94 9.0 22.0 0.00 0.00 0.00 40 1013.2
20260903122508 91 101 12.0 21.0 0.00 0.00 0.00 40 1013.2
20260903122008 91 79 13.0 24.0 0.00 0.00 0.00 41 1013.2
20260903121508 90 59 13.0 23.0 0.00 0.00 0.00 41 1013.2
20260903121009 90 71 11.0 21.0 0.00 0.00 0.00 41 1013.2
20260903120506 91 90 14.0 23.0 0.00 0.00 0.00 41 1013.2
20260903120006 91 74 17.0 23.0 0.00 0.00 0.00 40 1013.2
20260903115505 91 13 12.0 22.0 0.00 0.00 0.00 41 1013.3
20260903115005 91 80 14.0 22.0 0.00 0.00 0.00 41 1013.3
20260903114508 90 61 13.0 21.0 0.00 0.00 0.00 42 1013.4
20260903114005 91 69 10.0 22.0 0.00 0.00 0.00 42 1013.4
20260903113504 91 97 11.0 23.0 0.00 0.00 0.00 42 1013.4
20260903113004 90 119 12.0 21.0 0.00 0.00 0.00 42 1013.3
20260903112504 90 86 12.0 20.0 0.00 0.00 0.00 42 1013.4
20260903112004 90 92 11.0 20.0 0.00 0.00 0.00 42 1013.4
20260903111504 90 119 10.0 23.0 0.00 0.00 0.00 43 1013.5
20260903111003 90 22 10.0 23.0 0.00 0.00 0.00 43 1013.4
20260903110503 90 98 10.0 23.0 0.00 0.00 0.00 43 1013.5
20260903110002 90 93 13.0 23.0 0.00 0.00 0.00 43 1013.5
20260903105502 91 80 5.0 18.0 0.00 0.00 0.00 43 1013.5
20260903105102 90 42 11.0 19.0 0.00 0.00 0.00 43 1013.5
20260903104500 90 117 7.0 25.0 0.00 0.00 0.00 44 1013.7
20260903104102 90 86 11.0 25.0 0.00 0.00 0.00 44 1013.6
20260903103602 90 109 10.0 24.0 0.00 0.00 0.00 43 1013.6
20260903103100 90 121 11.0 24.0 0.00 0.00 0.00 43 1013.6
20260903102558 91 83 8.0 17.0 0.00 0.00 0.00 43 1013.6
20260903102059 91 84 8.0 21.0 0.00 0.00 0.00 43 1013.7
20260903101602 91 81 13.0 21.0 0.00 0.00 0.00 42 1013.7
20260903101057 91 40 11.0 17.0 0.00 0.00 0.00 41 1013.7
20260903100556 92 105 6.0 13.0 0.00 0.00 0.00 41 1013.7
20260903100055 91 74 5.0 15.0 0.00 0.00 0.00 42 1013.7
20260903095553 91 39 7.0 21.0 0.00 0.00 0.00 42 1013.9
20260903095054 90 60 10.0 21.0 0.00 0.00 0.00 42 1014.0
20260903094604 90 26 7.0 19.0 0.00 0.00 0.00 42 1014.0
20260903094049 90 40 13.0 23.0 0.00 0.00 0.00 43 1014.1
20260903093548 90 40 15.0 21.0 0.00 0.00 0.00 42 1014.1
20260903093049 89 69 13.0 21.0 0.00 0.00 0.00 43 1014.1
20260903092546 89 96 12.0 20.0 0.00 0.00 0.00 42 1014.0
20260903092045 89 35 10.0 23.0 0.00 0.00 0.00 43 1014.1
20260903091543 89 24 16.0 23.0 0.00 0.00 0.00 43 1014.1
20260903091043 89 45 10.0 24.0 0.00 0.00 0.00 43 1014.1
20260903090542 89 118 10.0 24.0 0.00 0.00 0.00 42 1014.1
20260903090054 89 113 7.0 24.0 0.00 0.00 0.00 43 1014.2
20260903085540 89 70 12.0 26.0 0.00 0.00 0.00 44 1014.2
20260903085039 89 92 15.0 26.0 0.00 0.00 0.00 43 1014.3
20260903084538 88 67 13.0 22.0 0.00 0.00 0.00 43 1014.5
20260903084038 88 90 13.0 25.0 0.00 0.00 0.00 43 1014.5
20260903083538 87 74 15.0 25.0 0.00 0.00 0.00 43 1014.5
20260903083053 88 87 13.0 22.0 0.00 0.00 0.00 42 1014.4
20260903082536 88 71 15.0 22.0 0.00 0.00 0.00 41 1014.3
20260903082035 88 65 6.0 19.0 0.00 0.00 0.00 42 1014.5
20260903081535 88 95 10.0 19.0 0.00 0.00 0.00 42 1014.4
20260903081034 88 82 10.0 21.0 0.00 0.00 0.00 42 1014.4
20260903080536 88 61 9.0 21.0 0.00 0.00 0.00 41 1014.4
20260903080033 88 39 6.0 24.0 0.00 0.00 0.00 41 1014.4
20260903075531 87 355 15.0 24.0 0.00 0.00 0.00 41 1014.3
20260903075031 87 55 14.0 26.0 0.00 0.00 0.00 41 1014.4
20260903074531 87 21 17.0 26.0 0.00 0.00 0.00 41 1014.5
20260903074030 87 31 12.0 21.0 0.00 0.00 0.00 40 1014.4
20260903073528 86 38 7.0 25.0 0.00 0.00 0.00 42 1014.5
20260903073027 86 49 10.0 25.0 0.00 0.00 0.00 44 1014.6
20260903072525 85 58 12.0 17.0 0.00 0.00 0.00 46 1014.6
20260903072028 84 132 7.0 20.0 0.00 0.00 0.00 48 1014.5
20260903071524 84 94 9.0 20.0 0.00 0.00 0.00 50 1014.5
20260903071023 83 107 8.0 15.0 0.00 0.00 0.00 51 1014.5
20260903070523 83 103 7.0 14.0 0.00 0.00 0.00 51 1014.5
20260903070023 83 104 7.0 14.0 0.00 0.00 0.00 51 1014.5
20260903065523 84 100 3.0 13.0 0.00 0.00 0.00 51 1014.5
20260903065020 84 145 8.0 13.0 0.00 0.00 0.00 51 1014.4
20260903064519 84 107 7.0 12.0 0.00 0.00 0.00 51 1014.4
20260903064017 83 136 5.0 14.0 0.00 0.00 0.00 51 1014.5
20260903063516 83 45 10.0 14.0 0.00 0.00 0.00 51 1014.4
20260903063026 83 102 6.0 14.0 0.00 0.00 0.00 52 1014.5
20260903062513 83 85 7.0 18.0 0.00 0.00 0.00 53 1014.5
20260903062015 82 138 3.0 18.0 0.00 0.00 0.00 54 1014.5
20260903061512 82 114 3.0 13.0 0.00 0.00 0.00 54 1014.4
20260903061012 82 99 5.0 13.0 0.00 0.00 0.00 54 1014.4
20260903060508 82 82 8.0 14.0 0.00 0.00 0.00 55 1014.4
20260903060022 81 105 6.0 16.0 0.00 0.00 0.00 55 1014.3
20260903055509 81 45 8.0 16.0 0.00 0.00 0.00 56 1014.3
20260903055004 80 74 8.0 16.0 0.00 0.00 0.00 57 1014.2
20260903054504 80 140 9.0 16.0 0.00 0.00 0.00 57 1014.3
20260903054003 80 96 9.0 17.0 0.00 0.00 0.00 57 1014.2
20260903053502 80 89 7.0 17.0 0.00 0.00 0.00 57 1014.4
20260903053002 80 74 10.0 17.0 0.00 0.00 0.00 57 1014.4
20260903052503 80 80 7.0 18.0 0.00 0.00 0.00 57 1014.5
20260903052100 80 109 10.0 18.0 0.00 0.00 0.00 57 1014.5
20260903051607 80 90 10.0 18.0 0.00 0.00 0.00 56 1014.6
20260903051057 80 98 7.0 15.0 0.00 0.00 0.00 55 1014.6
20260903050559 80 113 6.0 16.0 0.00 0.00 0.00 55 1014.5
20260903050054 80 92 9.0 16.0 0.00 0.00 0.00 54 1014.6
20260903045554 80 78 8.0 14.0 0.00 0.00 0.00 54 1014.5
20260903045052 80 111 7.0 13.0 0.00 0.00 0.00 53 1014.4
20260903044552 81 92 7.0 17.0 0.00 0.00 0.00 52 1014.3
20260903044050 81 109 6.0 17.0 0.00 0.00 0.00 51 1014.3
20260903043548 81 92 8.0 18.0 0.00 0.00 0.00 50 1014.4
20260903043047 81 82 12.0 18.0 0.00 0.00 0.00 50 1014.2
20260903042546 81 123 6.0 16.0 0.00 0.00 0.00 50 1014.2
20260903042045 81 38 7.0 11.0 0.00 0.00 0.00 49 1014.1
20260903041544 81 109 7.0 10.0 0.00 0.00 0.00 49 1014.2
20260903041043 81 113 2.0 10.0 0.00 0.00 0.00 49 1014.2
20260903040542 81 121 6.0 10.0 0.00 0.00 0.00 48 1014.2
20260903040057 81 158 3.0 7.0 0.00 0.00 0.00 47 1014.2
20260903035540 81 152 4.0 7.0 0.00 0.00 0.00 46 1014.1
20260903035040 82 172 4.0 6.0 0.00 0.00 0.00 46 1014.0
20260903034542 82 167 3.0 7.0 0.00 0.00 0.00 45 1014.0
20260903034041 82 140 3.0 7.0 0.00 0.00 0.00 45 1014.0
20260903033539 82 123 3.0 8.0 0.00 0.00 0.00 44 1014.0
20260903033039 82 98 3.0 8.0 0.00 0.00 0.00 44 1014.0
20260903032539 82 111 3.0 7.0 0.00 0.00 0.00 44 1014.0
20260903032038 82 69 4.0 9.0 0.00 0.00 0.00 44 1014.1
20260903031538 82 88 4.0 9.0 0.00 0.00 0.00 44 1014.1
20260903031038 82 360 4.0 11.0 0.00 0.00 0.00 44 1014.0
20260903030538 82 67 2.0 14.0 0.00 0.00 0.00 44 1014.0
20260903030039 82 60 6.0 14.0 0.00 0.00 0.00 43 1014.0
20260903025537 82 9 4.0 11.0 0.00 0.00 0.00 43 1014.1
20260903025039 82 57 5.0 11.0 0.00 0.00 0.00 43 1014.0
20260903024537 82 57 5.0 10.0 0.00 0.00 0.00 43 1014.0
20260903024036 82 65 5.0 10.0 0.00 0.00 0.00 43 1014.1
20260903023535 82 22 3.0 12.0 0.00 0.00 0.00 43 1014.2
20260903023050 82 38 6.0 13.0 0.00 0.00 0.00 43 1014.2
20260903022536 82 49 7.0 13.0 0.00 0.00 0.00 43 1014.2
20260903022036 82 40 7.0 15.0 0.00 0.00 0.00 43 1014.1
20260903021535 82 55 7.0 15.0 0.00 0.00 0.00 43 1014.1
20260903021035 82 73 8.0 14.0 0.00 0.00 0.00 43 1014.2
20260903020534 82 22 7.0 14.0 0.00 0.00 0.00 43 1014.1
20260903020034 82 30 10.0 15.0 0.00 0.00 0.00 42 1014.1
20260903015534 82 22 7.0 15.0 0.00 0.00 0.00 43 1014.1
20260903015034 82 79 6.0 12.0 0.00 0.00 0.00 43 1014.1
20260903014544 82 75 7.0 12.0 0.00 0.00 0.00 43 1014.1
20260903014034 81 43 3.0 11.0 0.00 0.00 0.00 43 1014.1
20260903013533 81 80 3.0 12.0 0.00 0.00 0.00 43 1014.1
20260903013042 81 85 7.0 12.0 0.00 0.00 0.00 44 1014.1
20260903012532 81 128 4.0 10.0 0.00 0.00 0.00 44 1014.2
20260903012033 81 123 5.0 11.0 0.00 0.00 0.00 44 1014.1
20260903011532 81 127 4.0 11.0 0.00 0.00 0.00 44 1014.2
20260903011032 81 123 3.0 10.0 0.00 0.00 0.00 44 1014.2
20260903010532 81 98 4.0 11.0 0.00 0.00 0.00 44 1014.2
20260903010042 81 96 6.0 13.0 0.00 0.00 0.00 44 1014.2
20260903005530 81 98 9.0 13.0 0.00 0.00 0.00 44 1014.2
20260903005032 81 70 6.0 13.0 0.00 0.00 0.00 43 1014.2
20260903004530 82 78 8.0 14.0 0.00 0.00 0.00 43 1014.2
20260903004030 82 81 9.0 15.0 0.00 0.00 0.00 43 1014.3
20260903003530 82 75 9.0 15.0 0.00 0.00 0.00 43 1014.3
20260903003028 82 65 8.0 17.0 0.00 0.00 0.00 43 1014.2
20260903002531 82 55 8.0 14.0 0.00 0.00 0.00 43 1014.2
20260903002032 82 71 6.0 14.0 0.00 0.00 0.00 43 1014.2
20260903001531 82 125 9.0 14.0 0.00 0.00 0.00 43 1014.2
20260903001027 82 123 6.0 15.0 0.00 0.00 0.00 43 1014.2
20260903000527 82 109 9.0 18.0 0.00 0.00 0.00 42 1014.2
20260903000027 83 93 11.0 18.0 0.00 0.00 0.00 42 1014.2
20260902235526 83 53 12.0 20.0 0.00 0.00 0.00 42 1014.2
20260902235025 82 82 10.0 20.0 0.00 0.00 0.00 43 1014.2
20260902234540 82 77 10.0 14.0 0.00 0.00 0.00 43 1014.2
20260902234027 82 83 10.0 14.0 0.00 0.00 0.00 43 1014.2
20260902233524 82 78 9.0 16.0 0.00 0.00 0.00 43 1014.4
20260902233024 82 51 6.0 16.0 0.00 0.00 0.00 43 1014.4
20260902232527 82 78 8.0 17.0 0.00 0.00 0.00 43 1014.4
20260902232023 83 81 10.0 17.0 0.00 0.00 0.00 42 1014.4
20260902231532 83 96 9.0 17.0 0.00 0.00 0.00 42 1014.3
20260902231024 83 98 8.0 17.0 0.00 0.00 0.00 42 1014.3
20260902230522 83 81 10.0 16.0 0.00 0.00 0.00 42 1014.4
20260902230022 83 88 10.0 19.0 0.00 0.00 0.00 42 1014.4
20260902225521 83 69 9.0 19.0 0.00 0.00 0.00 42 1014.5
20260902225021 83 89 12.0 18.0 0.00 0.00 0.00 42 1014.4
20260902224519 83 88 12.0 18.0 0.00 0.00 0.00 42 1014.5
20260902224018 82 69 11.0 16.0 0.00 0.00 0.00 42 1014.5
20260902223517 82 94 9.0 15.0 0.00 0.00 0.00 43 1014.5
20260902223016 81 105 8.0 15.0 0.00 0.00 0.00 44 1014.6
20260902222515 80 113 3.0 5.0 0.00 0.00 0.00 44 1014.7
20260902222015 80 65 2.0 6.0 0.00 0.00 0.00 45 1014.8
20260902221517 80 71 4.0 6.0 0.00 0.00 0.00 44 1014.8
20260902221012 80 61 3.0 6.0 0.00 0.00 0.00 44 1014.9
20260902220511 81 49 3.0 6.0 0.00 0.00 0.00 43 1015.0
20260902220020 81 42 2.0 5.0 0.00 0.00 0.00 43 1014.9
20260902215509 81 28 2.0 8.0 0.00 0.00 0.00 42 1015.0
20260902215011 82 59 3.0 8.0 0.00 0.00 0.00 42 1015.0
20260902214509 82 55 3.0 7.0 0.00 0.00 0.00 42 1015.0
20260902214006 83 30 3.0 9.0 0.00 0.00 0.00 41 1015.0
20260902213504 83 77 3.0 11.0 0.00 0.00 0.00 41 1015.0
20260902213002 83 72 4.0 11.0 0.00 0.00 0.00 41 1015.0
20260902212502 82 85 6.0 9.0 0.00 0.00 0.00 41 1015.0
20260902212003 82 87 5.0 9.0 0.00 0.00 0.00 42 1015.1
20260902211603 82 75 6.0 9.0 0.00 0.00 0.00 42 1015.1
20260902211101 81 47 4.0 8.0 0.00 0.00 0.00 43 1015.1
20260902210604 81 17 3.0 4.0 0.00 0.00 0.00 43 1015.2
20260902210058 82 350 3.0 4.0 0.00 0.00 0.00 42 1015.2
20260902205557 82 360 2.0 5.0 0.00 0.00 0.00 42 1015.2
20260902205101 83 74 0.0 6.0 0.00 0.00 0.00 41 1015.2
20260902204557 83 71 2.0 8.0 0.00 0.00 0.00 41 1015.2
20260902204056 83 96 5.0 8.0 0.00 0.00 0.00 41 1015.1
20260902203556 83 69 2.0 4.0 0.00 0.00 0.00 41 1015.2
20260902203056 83 33 1.0 3.0 0.00 0.00 0.00 41 1015.2